Tracking 22438 objects as of 25-Feb-2021
HD Live streaming from Space Station
objects crossing your sky now

DELTA 1 DEB

Track DELTA 1 DEB now!
10-day predictions


NORAD ID: 21497
Int'l Code: 1975-052FS
Perigee: 1,099.6 km
Apogee: 1,187.6 km
Inclination: 99.8 °
Period: 108.0 minutes
Semi major axis: 7514 km
RCS: 0.0605 m2 (small)
Launch date: June 12, 1975
Source: United States (US)
Launch site: AIR FORCE WESTERN TEST RANGE (AFWTR)

Note: This is SATELLITE DEBRIS
aabbcc
Your satellite tracking list
Your tracking list is empty




NASA's NSSDC Master Catalog

Two Line Element Set (TLE):
1 21497U 75052FS  21055.38041162 -.00000023  00000-0  40158-4 0  9998
2 21497  99.8220  20.0174 0058598 317.9040 208.6369 13.32732796449710
Source of the keplerian elements: AFSPC